Notices

What's New in latest Release from April 7th, 2021:

- Updated Glossary, including Speed of Maximum Gust, and Total Hourly Precipitation

- Updated national and regional climate services offices contacts and prices information

- Addition of station inventory lists for 1981-2010, 1971-2000, and 1961-1990 Normals.

If you haven't already, please take our survey and provide feedback about our website: https://eccc.sondage-survey.ca/f/LanguageSelection.aspx?s=442ca660-fcf1-47c0-95a9-59707d6fd709

Hourly Data Report for August 05, 2004

SHERBROOKE A
QUEBEC

45°26'00.000" N
71°41'00.000" W
241.40 m
7028124
71610
YSC

Download Data

Hourly Data (August 2004)
Hourly Data Report for August 5, 2004
TIME
LST
Temp Definition
°C
Dew Point Definition
°C
Rel Hum Definition
%
Precip. Amount Definition
mm

Wind Dir Definition
10's deg

Wind Spd Definition
km/h
Visibility Definition
km
Stn Press Definition
kPa
Hmdx Definition


Wind Chill Definition


Weather Definition


00:00 11.9 11.5 97     0 1.9 98.05      
01:00 11.3 10.8 97   14 4 4.0 98.05      
02:00 10.5 10.2 98     0 0.3 98.02      
03:00 10.0 9.6 97     0 15.0 98.03      
04:00 9.5 8.9 96   30 7 15.0 98.04      
05:00 8.8 8.2 96   30 7 15.0 98.09      
06:00 11.4 10.2 92   28 6 15.0 98.14      
07:00 12.6 10.7 88   28 6 24.1 98.17     Mainly Clear
08:00 14.1 9.8 75   29 7 24.1 98.20     Mainly Clear
09:00 14.6 9.8 73   30 9 24.1 98.21     Mainly Clear
10:00 14.6 9.9 73   29 17 24.1 98.23     Mostly Cloudy
11:00 15.5 9.5 67   30 17 24.1 98.21     Mostly Cloudy
12:00 16.4 9.4 63   27 19 24.1 98.21     Mostly Cloudy
13:00 16.1 9.4 64   31 15 24.1 98.24     Mostly Cloudy
14:00 15.7 9.5 67   30 11 24.1 98.24     Mostly Cloudy
15:00 15.6 9.4 67   32 6 24.1 98.23     Mostly Cloudy
16:00 15.6 9.8 68   30 9 24.1 98.24     Mostly Cloudy
17:00 15.4 9.2 67   30 13 15.0 98.23      
18:00 16.2 9.8 66   29 7 15.0 98.24      
19:00 12.4 9.8 84     0 15.0 98.28      
20:00 10.8 9.4 91     0 15.0 98.25      
21:00 10.7 9.7 94   21 4 15.0 98.28      
22:00 11.1 10.0 93     0 15.0 98.30      
23:00 10.9 10.0 94   28 6 15.0 98.30      

Notes on Data Quality.

Legend

  • E = Estimated
  • M = Missing
  • NA = Not Available*
  • [empty] = Indicates an unobserved value
Date modified: